Weather in Oberstdorf

Germany     47˚24′37″N   10˚16′29″E
temp.,
°C
wind,
m/s
gust,
m/s
humid.,
%
clouds,
%
prec.,
mm/h
press.,
hPa
HPBL,
m
29 november, sun
sun2901:00ese126395 0.0 101923
04:00−1˚ese1163100 0.0 102022
07:00−2˚ene117189 0.0 102030
10:00nne12650 0.0 1020131
13:00+2˚n22630 0.0 1020261
16:00−1˚nne12830 0.0 102092
19:00−3˚ene11900 0.0 102225
22:00−3˚e11840 0.0 102321
30 november, mon
mon3001:00−3˚ene01810 0.0 102421
04:00−3˚se01730 0.0 102421
07:00−4˚ne00730 0.0 102521
10:00nw11590 0.0 1025120
13:00+2˚nnw11530 0.0 1024236
16:00−2˚n00800 0.0 102421
19:00−3˚ssw12780 0.0 102421
22:00−2˚ssw22590 0.0 102521
1 december, tue
tue101:00−2˚ssw224917 0.0 102322
04:00−2˚ssw22470 0.0 102122
07:00−1˚sw224350 0.0 101924
10:00+1˚wsw1145100 0.1 101794
13:00+2˚s1170100 0.2 1015444
16:00ene1196100 0.1 101436
19:00−1˚ne1190100 0.1 101626
22:00−2˚nne0178100 0.0 101621
2 december, wed
wed201:00−3˚se0077100 0.0 101621
04:00−3˚ene1174100 0.0 101622
07:00−4˚se117374 0.0 101621
10:00−1˚n11560 0.0 1015169
13:00+1˚n21520 0.0 1013403
16:00−2˚n117244 0.0 101326
19:00−4˚wsw008422 0.0 101421
22:00−4˚w118851 0.0 101421
3 december, thu
thu301:00−5˚w019229 0.0 101321
04:00−5˚nw0196100 0.0 101136
07:00−4˚nnw1190100 0.0 1010151
10:00−3˚n1079100 0.0 1008263
13:00−1˚n216867 0.0 1005351
16:00−3˚nne118187 0.0 100349
19:00−4˚w118993 0.0 100330
22:00−3˚ene018774 0.0 100121